Year,Month,Day,Hour,Minute,Value (Times are PST for temperature in C)
2015,07,20,00,00,21.30
2015,07,20,00,01,21.30
2015,07,20,00,02,21.30
2015,07,20,00,03,21.40
2015,07,20,00,04,21.40
2015,07,20,00,05,21.40
2015,07,20,00,06,21.40
2015,07,20,00,07,21.40
2015,07,20,00,08,21.50
2015,07,20,00,09,21.50
2015,07,20,00,10,21.40
2015,07,20,00,11,21.40
2015,07,20,00,12,21.50
2015,07,20,00,13,21.50
2015,07,20,00,14,21.50
2015,07,20,00,15,21.60
2015,07,20,00,16,21.60
2015,07,20,00,17,21.60
2015,07,20,00,18,21.70
2015,07,20,00,19,21.70
2015,07,20,00,20,21.80
2015,07,20,00,21,21.80
2015,07,20,00,22,21.80
2015,07,20,00,23,21.90
2015,07,20,00,24,22.00
2015,07,20,00,25,22.10
2015,07,20,00,26,22.20
2015,07,20,00,27,22.20
2015,07,20,00,28,22.30
2015,07,20,00,29,22.30
2015,07,20,00,30,22.30
2015,07,20,00,31,22.40
2015,07,20,00,32,22.40
2015,07,20,00,33,22.40
2015,07,20,00,34,22.40
2015,07,20,00,35,22.40
2015,07,20,00,36,22.40
2015,07,20,00,37,22.40
2015,07,20,00,38,22.40
2015,07,20,00,39,22.40
2015,07,20,00,40,22.40
2015,07,20,00,41,22.30
2015,07,20,00,42,22.30
2015,07,20,00,43,22.30
2015,07,20,00,44,22.30
2015,07,20,00,45,22.30
2015,07,20,00,46,22.30
2015,07,20,00,47,22.20
2015,07,20,00,48,22.20
2015,07,20,00,49,22.20
2015,07,20,00,50,22.20
2015,07,20,00,51,22.10
2015,07,20,00,52,22.10
2015,07,20,00,53,22.10
2015,07,20,00,54,22.00
2015,07,20,00,55,22.00
2015,07,20,00,56,22.00
2015,07,20,00,57,22.00
2015,07,20,00,58,21.90
2015,07,20,00,59,21.90
2015,07,20,01,00,21.80
2015,07,20,01,01,21.80
2015,07,20,01,02,21.80
2015,07,20,01,03,21.80
2015,07,20,01,04,21.70
2015,07,20,01,05,21.70
2015,07,20,01,06,21.70
2015,07,20,01,07,21.70
2015,07,20,01,08,21.60
2015,07,20,01,09,21.60
2015,07,20,01,10,21.60
2015,07,20,01,11,21.60
2015,07,20,01,12,21.50
2015,07,20,01,13,21.50
2015,07,20,01,14,21.40
2015,07,20,01,15,21.40
2015,07,20,01,16,21.30
2015,07,20,01,17,21.30
2015,07,20,01,18,21.20
2015,07,20,01,19,21.10
2015,07,20,01,20,21.10
2015,07,20,01,21,21.10
2015,07,20,01,22,21.00
2015,07,20,01,23,20.90
2015,07,20,01,24,20.90
2015,07,20,01,25,20.80
2015,07,20,01,26,20.80
2015,07,20,01,27,20.80
2015,07,20,01,28,20.80
2015,07,20,01,29,20.80
2015,07,20,01,30,20.80
2015,07,20,01,31,20.80
2015,07,20,01,32,20.80
2015,07,20,01,33,20.70
2015,07,20,01,34,20.70
2015,07,20,01,35,20.70
2015,07,20,01,36,20.60
2015,07,20,01,37,20.60
2015,07,20,01,38,20.60
2015,07,20,01,39,20.50
2015,07,20,01,40,20.40
2015,07,20,01,41,20.40
2015,07,20,01,42,20.30
2015,07,20,01,43,20.30
2015,07,20,01,44,20.20
2015,07,20,01,45,20.20
2015,07,20,01,46,20.20
2015,07,20,01,47,20.10
2015,07,20,01,48,20.10
2015,07,20,01,49,20.10
2015,07,20,01,50,20.00
2015,07,20,01,51,20.00
2015,07,20,01,52,20.00
2015,07,20,01,53,19.90
2015,07,20,01,54,19.90
2015,07,20,01,55,19.90
2015,07,20,01,56,19.90
2015,07,20,01,57,19.80
2015,07,20,01,58,19.80
2015,07,20,01,59,19.80
2015,07,20,02,00,19.80
2015,07,20,02,01,19.80
2015,07,20,02,02,19.70
2015,07,20,02,03,19.70
2015,07,20,02,04,19.70
2015,07,20,02,05,19.70
2015,07,20,02,06,19.60
2015,07,20,02,07,19.60
2015,07,20,02,08,19.60
2015,07,20,02,09,19.60
2015,07,20,02,10,19.60
2015,07,20,02,11,19.50
2015,07,20,02,12,19.50
2015,07,20,02,13,19.50
2015,07,20,02,14,19.40
2015,07,20,02,15,19.40
2015,07,20,02,16,19.40
2015,07,20,02,17,19.40
2015,07,20,02,18,19.40
2015,07,20,02,19,19.40
2015,07,20,02,20,19.40
2015,07,20,02,21,19.40
2015,07,20,02,22,19.30
2015,07,20,02,23,19.30
2015,07,20,02,24,19.30
2015,07,20,02,25,19.30
2015,07,20,02,26,19.20
2015,07,20,02,27,19.20
2015,07,20,02,28,19.20
2015,07,20,02,29,19.10
2015,07,20,02,30,19.10
2015,07,20,02,31,19.10
2015,07,20,02,32,19.00
2015,07,20,02,33,18.90
2015,07,20,02,34,18.90
2015,07,20,02,35,18.90
2015,07,20,02,36,18.80
2015,07,20,02,37,18.70
2015,07,20,02,38,18.70
2015,07,20,02,39,18.60
2015,07,20,02,40,18.60
2015,07,20,02,41,18.60
2015,07,20,02,42,18.50
2015,07,20,02,43,18.50
2015,07,20,02,44,18.40
2015,07,20,02,45,18.40
2015,07,20,02,46,18.40
2015,07,20,02,47,18.30
2015,07,20,02,48,18.30
2015,07,20,02,49,18.30
2015,07,20,02,50,18.30
2015,07,20,02,51,18.30
2015,07,20,02,52,18.20
2015,07,20,02,53,18.20
2015,07,20,02,54,18.20
2015,07,20,02,55,18.20
2015,07,20,02,56,18.20
2015,07,20,02,57,18.20
2015,07,20,02,58,18.10
2015,07,20,02,59,18.10
2015,07,20,03,00,18.10
2015,07,20,03,01,18.00
2015,07,20,03,02,18.00
2015,07,20,03,03,18.00
2015,07,20,03,04,18.00
2015,07,20,03,05,17.90
2015,07,20,03,06,18.00
2015,07,20,03,07,18.00
2015,07,20,03,08,18.00
2015,07,20,03,09,18.00
2015,07,20,03,10,18.00
2015,07,20,03,11,18.00
2015,07,20,03,12,18.00
2015,07,20,03,13,18.00
2015,07,20,03,14,17.90
2015,07,20,03,15,17.90
2015,07,20,03,16,17.90
2015,07,20,03,17,17.90
2015,07,20,03,18,17.90
2015,07,20,03,19,17.90
2015,07,20,03,20,17.90
2015,07,20,03,21,17.90
2015,07,20,03,22,17.80
2015,07,20,03,23,17.80
2015,07,20,03,24,17.80
2015,07,20,03,25,17.80
2015,07,20,03,26,17.80
2015,07,20,03,27,17.70
2015,07,20,03,28,17.70
2015,07,20,03,29,17.70
2015,07,20,03,30,17.70
2015,07,20,03,31,17.70
2015,07,20,03,32,17.70
2015,07,20,03,33,17.80
2015,07,20,03,34,17.80
2015,07,20,03,35,17.80
2015,07,20,03,36,17.80
2015,07,20,03,37,17.80
2015,07,20,03,38,17.80
2015,07,20,03,39,17.80
2015,07,20,03,40,17.80
2015,07,20,03,41,17.80
2015,07,20,03,42,17.80
2015,07,20,03,43,17.80
2015,07,20,03,44,17.90
2015,07,20,03,45,18.00
2015,07,20,03,46,18.10
2015,07,20,03,47,18.20
2015,07,20,03,48,18.30
2015,07,20,03,49,18.40
2015,07,20,03,50,18.40
2015,07,20,03,51,18.50
2015,07,20,03,52,18.60
2015,07,20,03,53,18.60
2015,07,20,03,54,18.70
2015,07,20,03,55,18.70
2015,07,20,03,56,18.70
2015,07,20,03,57,18.70
2015,07,20,03,58,18.70
2015,07,20,03,59,18.70
2015,07,20,04,00,18.70
2015,07,20,04,01,18.70
2015,07,20,04,02,18.70
2015,07,20,04,03,18.60
2015,07,20,04,04,18.50
2015,07,20,04,05,18.50
2015,07,20,04,06,18.40
2015,07,20,04,07,18.30
2015,07,20,04,08,18.30
2015,07,20,04,09,18.20
2015,07,20,04,10,18.20
2015,07,20,04,11,18.20
2015,07,20,04,12,18.20
2015,07,20,04,13,18.10
2015,07,20,04,14,18.10
2015,07,20,04,15,18.00
2015,07,20,04,16,18.00
2015,07,20,04,17,17.90
2015,07,20,04,18,17.80
2015,07,20,04,19,17.80
2015,07,20,04,20,17.80
2015,07,20,04,21,17.70
2015,07,20,04,22,17.70
2015,07,20,04,23,17.60
2015,07,20,04,24,17.60
2015,07,20,04,25,17.50
2015,07,20,04,26,17.50
2015,07,20,04,27,17.40
2015,07,20,04,28,17.40
2015,07,20,04,29,17.40
2015,07,20,04,30,17.30
2015,07,20,04,31,17.30
2015,07,20,04,32,17.30
2015,07,20,04,33,17.20
2015,07,20,04,34,17.20
2015,07,20,04,35,17.20
2015,07,20,04,36,17.20
2015,07,20,04,37,17.20
2015,07,20,04,38,17.20
2015,07,20,04,39,17.20
2015,07,20,04,40,17.20
2015,07,20,04,41,17.20
2015,07,20,04,42,17.20
2015,07,20,04,43,17.20
2015,07,20,04,44,17.10
2015,07,20,04,45,17.10
2015,07,20,04,46,17.10
2015,07,20,04,47,17.10
2015,07,20,04,48,17.10
2015,07,20,04,49,17.10
2015,07,20,04,50,17.00
2015,07,20,04,51,17.00
2015,07,20,04,52,16.90
2015,07,20,04,53,16.90
2015,07,20,04,54,16.80
2015,07,20,04,55,16.80
2015,07,20,04,56,16.70
2015,07,20,04,57,16.70
2015,07,20,04,58,16.70
2015,07,20,04,59,16.60
2015,07,20,05,00,16.60
2015,07,20,05,01,16.60
2015,07,20,05,02,16.60
2015,07,20,05,03,16.60
2015,07,20,05,04,16.60
2015,07,20,05,05,16.60
2015,07,20,05,06,16.50
2015,07,20,05,07,16.50
2015,07,20,05,08,16.50
2015,07,20,05,09,16.50
2015,07,20,05,10,16.40
2015,07,20,05,11,16.40
2015,07,20,05,12,16.40
2015,07,20,05,13,16.40
2015,07,20,05,14,16.30
2015,07,20,05,15,16.30
2015,07,20,05,16,16.30
2015,07,20,05,17,16.30
2015,07,20,05,18,16.30
2015,07,20,05,19,16.30
2015,07,20,05,20,16.30
2015,07,20,05,21,16.40
2015,07,20,05,22,16.40
2015,07,20,05,23,16.40
2015,07,20,05,24,16.40
2015,07,20,05,25,16.40
2015,07,20,05,26,16.40
2015,07,20,05,27,16.30
2015,07,20,05,28,16.30
2015,07,20,05,29,16.30
2015,07,20,05,30,16.30
2015,07,20,05,31,16.30
2015,07,20,05,32,16.20
2015,07,20,05,33,16.20
2015,07,20,05,34,16.20
2015,07,20,05,35,16.20
2015,07,20,05,36,16.20
2015,07,20,05,37,16.20
2015,07,20,05,38,16.20
2015,07,20,05,39,16.20
2015,07,20,05,40,16.20
2015,07,20,05,41,16.20
2015,07,20,05,42,16.10
2015,07,20,05,43,16.10
2015,07,20,05,44,16.10
2015,07,20,05,45,16.10
2015,07,20,05,46,16.10
2015,07,20,05,47,16.10
2015,07,20,05,48,16.10
2015,07,20,05,49,16.00
2015,07,20,05,50,16.00
2015,07,20,05,51,16.00
2015,07,20,05,52,15.90
2015,07,20,05,53,15.90
2015,07,20,05,54,15.90
2015,07,20,05,55,15.90
2015,07,20,05,56,15.90
2015,07,20,05,57,15.90
2015,07,20,05,58,15.90
2015,07,20,05,59,15.80
2015,07,20,06,00,15.80
2015,07,20,06,01,15.80
2015,07,20,06,02,15.80
2015,07,20,06,03,15.80
2015,07,20,06,04,15.80
2015,07,20,06,05,15.80
2015,07,20,06,06,15.70
2015,07,20,06,07,15.70
2015,07,20,06,08,15.70
2015,07,20,06,09,15.70
2015,07,20,06,10,15.70
2015,07,20,06,11,15.70
2015,07,20,06,12,15.70
2015,07,20,06,13,15.70
2015,07,20,06,14,15.70
2015,07,20,06,15,15.70
2015,07,20,06,16,15.70
2015,07,20,06,17,15.70
2015,07,20,06,18,15.70
2015,07,20,06,19,15.70
2015,07,20,06,20,15.70
2015,07,20,06,21,15.70
2015,07,20,06,22,15.80
2015,07,20,06,23,15.80
2015,07,20,06,24,15.80
2015,07,20,06,25,15.80
2015,07,20,06,26,15.80
2015,07,20,06,27,15.80
2015,07,20,06,28,15.80
2015,07,20,06,29,15.80
2015,07,20,06,30,15.80
2015,07,20,06,31,15.90
2015,07,20,06,32,15.90
2015,07,20,06,33,16.00
2015,07,20,06,34,16.00
2015,07,20,06,35,16.10
2015,07,20,06,36,16.10
2015,07,20,06,37,16.20
2015,07,20,06,38,16.20
2015,07,20,06,39,16.20
2015,07,20,06,40,16.30
2015,07,20,06,41,16.30
2015,07,20,06,42,16.40
2015,07,20,06,43,16.40
2015,07,20,06,44,16.50
2015,07,20,06,45,16.50
2015,07,20,06,46,16.60
2015,07,20,06,47,16.70
2015,07,20,06,48,16.80
2015,07,20,06,49,16.90
2015,07,20,06,50,17.00
2015,07,20,06,51,17.10
2015,07,20,06,52,17.30
2015,07,20,06,53,17.30
2015,07,20,06,54,17.40
2015,07,20,06,55,17.50
2015,07,20,06,56,17.50
2015,07,20,06,57,17.50
2015,07,20,06,58,17.40
2015,07,20,06,59,17.40
2015,07,20,07,00,17.30
2015,07,20,07,01,17.30
2015,07,20,07,02,17.30
2015,07,20,07,03,17.30
2015,07,20,07,04,17.30
2015,07,20,07,05,17.30
2015,07,20,07,06,17.30
2015,07,20,07,07,17.40
2015,07,20,07,08,17.40
2015,07,20,07,09,17.50
2015,07,20,07,10,17.50
2015,07,20,07,11,17.60
2015,07,20,07,12,17.70
2015,07,20,07,13,17.70
2015,07,20,07,14,17.80
2015,07,20,07,15,17.80
2015,07,20,07,16,17.80
2015,07,20,07,17,17.90
2015,07,20,07,18,17.90
2015,07,20,07,19,17.90
2015,07,20,07,20,18.00
2015,07,20,07,21,18.00
2015,07,20,07,22,18.10
2015,07,20,07,23,18.20
2015,07,20,07,24,18.30
2015,07,20,07,25,18.30
2015,07,20,07,26,18.30
2015,07,20,07,27,18.40
2015,07,20,07,28,18.50
2015,07,20,07,29,18.60
2015,07,20,07,30,18.60
2015,07,20,07,31,18.70
2015,07,20,07,32,18.80
2015,07,20,07,33,18.80
2015,07,20,07,34,18.80
2015,07,20,07,35,18.80
2015,07,20,07,36,18.90
2015,07,20,07,37,18.90
2015,07,20,07,38,19.00
2015,07,20,07,39,19.10
2015,07,20,07,40,19.20
2015,07,20,07,41,19.30
2015,07,20,07,42,19.30
2015,07,20,07,43,19.40
2015,07,20,07,44,19.40
2015,07,20,07,45,19.40
2015,07,20,07,46,19.40
2015,07,20,07,47,19.40
2015,07,20,07,48,19.50
2015,07,20,07,49,19.50
2015,07,20,07,50,19.60
2015,07,20,07,51,19.70
2015,07,20,07,52,19.80
2015,07,20,07,53,19.90
2015,07,20,07,54,20.00
2015,07,20,07,55,20.10
2015,07,20,07,56,20.20
2015,07,20,07,57,20.20
2015,07,20,07,58,20.20
2015,07,20,07,59,20.30
2015,07,20,08,00,20.40
2015,07,20,08,01,20.40
2015,07,20,08,02,20.50
2015,07,20,08,03,20.50
2015,07,20,08,04,20.60
2015,07,20,08,05,20.60
2015,07,20,08,06,20.60
2015,07,20,08,07,20.60
2015,07,20,08,08,20.60
2015,07,20,08,09,20.70
2015,07,20,08,10,20.70
2015,07,20,08,11,20.80
2015,07,20,08,12,20.90
2015,07,20,08,13,21.00
2015,07,20,08,14,21.10
2015,07,20,08,15,21.10
2015,07,20,08,16,21.10
2015,07,20,08,17,21.10
2015,07,20,08,18,21.00
2015,07,20,08,19,20.90
2015,07,20,08,20,20.80
2015,07,20,08,21,20.70
2015,07,20,08,22,20.60
2015,07,20,08,23,20.60
2015,07,20,08,24,20.50
2015,07,20,08,25,20.50
2015,07,20,08,26,20.40
2015,07,20,08,27,20.50
2015,07,20,08,28,20.50
2015,07,20,08,29,20.60
2015,07,20,08,30,20.60
2015,07,20,08,31,20.60
2015,07,20,08,32,20.60
2015,07,20,08,33,20.60
2015,07,20,08,34,20.60
2015,07,20,08,35,20.60
2015,07,20,08,36,20.50
2015,07,20,08,37,20.50
2015,07,20,08,38,20.50
2015,07,20,08,39,20.50
2015,07,20,08,40,20.50
2015,07,20,08,41,20.60
2015,07,20,08,42,20.60
2015,07,20,08,43,20.60
2015,07,20,08,44,20.60
2015,07,20,08,45,20.60
2015,07,20,08,46,20.60
2015,07,20,08,47,20.60
2015,07,20,08,48,20.60
2015,07,20,08,49,20.60
2015,07,20,08,50,20.50
2015,07,20,08,51,20.50
2015,07,20,08,52,20.50
2015,07,20,08,53,20.50
2015,07,20,08,54,20.50
2015,07,20,08,55,20.40
2015,07,20,08,56,20.30
2015,07,20,08,57,20.30
2015,07,20,08,58,20.20
2015,07,20,08,59,20.10
2015,07,20,09,00,20.00
2015,07,20,09,01,19.80
2015,07,20,09,02,19.70
2015,07,20,09,03,19.60
2015,07,20,09,04,19.50
2015,07,20,09,05,19.50
2015,07,20,09,06,19.50
2015,07,20,09,07,19.50
2015,07,20,09,08,19.40
2015,07,20,09,09,19.40
2015,07,20,09,10,19.40
2015,07,20,09,11,19.30
2015,07,20,09,12,19.30
2015,07,20,09,13,19.40
2015,07,20,09,14,19.50
2015,07,20,09,15,19.60
2015,07,20,09,16,19.60
2015,07,20,09,17,19.70
2015,07,20,09,18,19.80
2015,07,20,09,19,19.80
2015,07,20,09,20,19.80
2015,07,20,09,21,19.80
2015,07,20,09,22,19.80
2015,07,20,09,23,19.80
2015,07,20,09,24,19.80
2015,07,20,09,25,19.80
2015,07,20,09,26,19.80
2015,07,20,09,27,19.90
2015,07,20,09,28,20.00
2015,07,20,09,29,20.10
2015,07,20,09,30,20.20
2015,07,20,09,31,20.30
2015,07,20,09,32,20.30
2015,07,20,09,33,20.30
2015,07,20,09,34,20.40
2015,07,20,09,35,20.40
2015,07,20,09,36,20.40
2015,07,20,09,37,20.40
2015,07,20,09,38,20.30
2015,07,20,09,39,20.30
2015,07,20,09,40,20.30
2015,07,20,09,41,20.30
2015,07,20,09,42,20.30
2015,07,20,09,43,20.30
2015,07,20,09,44,20.30
2015,07,20,09,45,20.40
2015,07,20,09,46,20.50
2015,07,20,09,47,20.50
2015,07,20,09,48,20.50
2015,07,20,09,49,20.50
2015,07,20,09,50,20.40
2015,07,20,09,51,20.40
2015,07,20,09,52,20.30
2015,07,20,09,53,20.30
2015,07,20,09,54,20.30
2015,07,20,09,55,20.30
2015,07,20,09,56,20.30
2015,07,20,09,57,20.40
2015,07,20,09,58,20.50
2015,07,20,09,59,20.50
2015,07,20,10,00,20.60
2015,07,20,10,01,20.60
2015,07,20,10,02,20.50
2015,07,20,10,03,20.50
2015,07,20,10,04,20.50
2015,07,20,10,05,20.50
2015,07,20,10,06,20.60
2015,07,20,10,07,20.70
2015,07,20,10,08,20.70
2015,07,20,10,09,20.80
2015,07,20,10,10,20.80
2015,07,20,10,11,20.80
2015,07,20,10,12,20.90
2015,07,20,10,13,20.90
2015,07,20,10,14,20.90
2015,07,20,10,15,20.80
2015,07,20,10,16,20.80
2015,07,20,10,17,20.70
2015,07,20,10,18,20.60
2015,07,20,10,19,20.50
2015,07,20,10,20,20.50
2015,07,20,10,21,20.50
2015,07,20,10,22,20.50
2015,07,20,10,23,20.60
2015,07,20,10,24,20.60
2015,07,20,10,25,20.60
2015,07,20,10,26,20.60
2015,07,20,10,27,20.60
2015,07,20,10,28,20.50
2015,07,20,10,29,20.50
2015,07,20,10,30,20.50
2015,07,20,10,31,20.50
2015,07,20,10,32,20.50
2015,07,20,10,33,20.50
2015,07,20,10,34,20.50
2015,07,20,10,35,20.60
2015,07,20,10,36,20.70
2015,07,20,10,37,20.70
2015,07,20,10,38,20.80
2015,07,20,10,39,20.80
2015,07,20,10,40,20.80
2015,07,20,10,41,20.80
2015,07,20,10,42,20.90
2015,07,20,10,43,21.00
2015,07,20,10,44,21.00
2015,07,20,10,45,21.00
2015,07,20,10,46,20.90
2015,07,20,10,47,20.90
2015,07,20,10,48,20.80
2015,07,20,10,49,20.80
2015,07,20,10,50,20.70
2015,07,20,10,51,20.70
2015,07,20,10,52,20.70
2015,07,20,10,53,20.70
2015,07,20,10,54,20.70
2015,07,20,10,55,20.60
2015,07,20,10,56,20.60
2015,07,20,10,57,20.70
2015,07,20,10,58,20.70
2015,07,20,10,59,20.70
2015,07,20,11,00,20.80
2015,07,20,11,01,20.90
2015,07,20,11,02,20.90
2015,07,20,11,03,21.00
2015,07,20,11,04,21.00
2015,07,20,11,05,21.10
2015,07,20,11,06,21.10
2015,07,20,11,07,21.10
2015,07,20,11,08,21.10
2015,07,20,11,09,21.10
2015,07,20,11,10,21.00
2015,07,20,11,11,21.10
2015,07,20,11,12,21.20
2015,07,20,11,13,21.20
2015,07,20,11,14,21.30
2015,07,20,11,15,21.40
2015,07,20,11,16,21.40
2015,07,20,11,17,21.40
2015,07,20,11,18,21.40
2015,07,20,11,19,21.40
2015,07,20,11,20,21.50
2015,07,20,11,21,21.50
2015,07,20,11,22,21.50
2015,07,20,11,23,21.50
2015,07,20,11,24,21.50
2015,07,20,11,25,21.50
2015,07,20,11,26,21.40
2015,07,20,11,27,21.40
2015,07,20,11,28,21.40
2015,07,20,11,29,21.40
2015,07,20,11,30,21.40
2015,07,20,11,31,21.50
2015,07,20,11,32,21.60
2015,07,20,11,33,21.60
2015,07,20,11,34,21.60
2015,07,20,11,35,21.60
2015,07,20,11,36,21.60
2015,07,20,11,37,21.50
2015,07,20,11,38,21.50
2015,07,20,11,39,21.40
2015,07,20,11,40,21.40
2015,07,20,11,41,21.50
2015,07,20,11,42,21.40
2015,07,20,11,43,21.40
2015,07,20,11,44,21.40
2015,07,20,11,45,21.50
2015,07,20,11,46,21.50
2015,07,20,11,47,21.60
2015,07,20,11,48,21.60
2015,07,20,11,49,21.70
2015,07,20,11,50,21.70
2015,07,20,11,51,21.70
2015,07,20,11,52,21.80
2015,07,20,11,53,21.80
2015,07,20,11,54,21.80
2015,07,20,11,55,21.80
2015,07,20,11,56,21.70
2015,07,20,11,57,21.70
2015,07,20,11,58,21.80
2015,07,20,11,59,21.80
2015,07,20,12,00,21.70
2015,07,20,12,01,21.80
2015,07,20,12,02,21.70
2015,07,20,12,03,21.70
2015,07,20,12,04,21.70
2015,07,20,12,05,21.70
2015,07,20,12,06,21.70
2015,07,20,12,07,21.50
2015,07,20,12,08,21.40
2015,07,20,12,09,21.30
2015,07,20,12,10,21.20
2015,07,20,12,11,21.20
2015,07,20,12,12,21.10
2015,07,20,12,13,21.00
2015,07,20,12,14,21.00
2015,07,20,12,15,21.00
2015,07,20,12,16,21.10
2015,07,20,12,17,21.20
2015,07,20,12,18,21.20
2015,07,20,12,19,21.40
2015,07,20,12,20,21.50
2015,07,20,12,21,21.60
2015,07,20,12,22,21.80
2015,07,20,12,23,21.90
2015,07,20,12,24,22.10
2015,07,20,12,25,22.00
2015,07,20,12,26,21.90
2015,07,20,12,27,21.90
2015,07,20,12,28,22.00
2015,07,20,12,29,22.00
2015,07,20,12,30,21.90
2015,07,20,12,31,21.90
2015,07,20,12,32,22.00
2015,07,20,12,33,22.10
2015,07,20,12,34,22.10
2015,07,20,12,35,22.10
2015,07,20,12,36,22.10
2015,07,20,12,37,22.00
2015,07,20,12,38,21.90
2015,07,20,12,39,21.80
2015,07,20,12,40,21.80
2015,07,20,12,41,21.80
2015,07,20,12,42,21.70
2015,07,20,12,43,21.70
2015,07,20,12,44,21.60
2015,07,20,12,45,21.60
2015,07,20,12,46,21.60
2015,07,20,12,47,21.60
2015,07,20,12,48,21.50
2015,07,20,12,49,21.50
2015,07,20,12,50,21.40
2015,07,20,12,51,21.30
2015,07,20,12,52,21.20
2015,07,20,12,53,21.10
2015,07,20,12,54,21.00
2015,07,20,12,55,20.90
2015,07,20,12,56,20.80
2015,07,20,12,57,20.80
2015,07,20,12,58,20.80
2015,07,20,12,59,20.70
2015,07,20,13,00,20.70
2015,07,20,13,01,20.80
2015,07,20,13,02,20.90
2015,07,20,13,03,21.00
2015,07,20,13,04,21.00
2015,07,20,13,05,21.00
2015,07,20,13,06,21.00
2015,07,20,13,07,20.90
2015,07,20,13,08,20.80
2015,07,20,13,09,20.70
2015,07,20,13,10,20.70
2015,07,20,13,11,20.70
2015,07,20,13,12,20.80
2015,07,20,13,13,20.80
2015,07,20,13,14,20.80
2015,07,20,13,15,20.70
2015,07,20,13,16,20.60
2015,07,20,13,17,20.60
2015,07,20,13,18,20.70
2015,07,20,13,19,20.70
2015,07,20,13,20,20.80
2015,07,20,13,21,20.80
2015,07,20,13,22,20.80
2015,07,20,13,23,20.90
2015,07,20,13,24,21.00
2015,07,20,13,25,21.10
2015,07,20,13,26,21.30
2015,07,20,13,27,21.40
2015,07,20,13,28,21.60
2015,07,20,13,29,21.80
2015,07,20,13,30,21.80
2015,07,20,13,31,21.70
2015,07,20,13,32,21.60
2015,07,20,13,33,21.50
2015,07,20,13,34,21.30
2015,07,20,13,35,21.20
2015,07,20,13,36,21.10
2015,07,20,13,37,21.00
2015,07,20,13,38,21.10
2015,07,20,13,39,21.10
2015,07,20,13,40,21.10
2015,07,20,13,41,21.00
2015,07,20,13,42,21.00
2015,07,20,13,43,20.90
2015,07,20,13,44,21.00
2015,07,20,13,45,21.00
2015,07,20,13,46,21.10
2015,07,20,13,47,21.20
2015,07,20,13,48,21.20
2015,07,20,13,49,21.10
2015,07,20,13,50,21.10
2015,07,20,13,51,21.10
2015,07,20,13,52,21.10
2015,07,20,13,53,21.10
2015,07,20,13,54,21.20
2015,07,20,13,55,21.20
2015,07,20,13,56,21.20
2015,07,20,13,57,21.20
2015,07,20,13,58,21.20
2015,07,20,13,59,21.20
2015,07,20,14,00,21.20
2015,07,20,14,01,21.30
2015,07,20,14,02,21.30
2015,07,20,14,03,21.30
2015,07,20,14,04,21.30
2015,07,20,14,05,21.30
2015,07,20,14,06,21.30
2015,07,20,14,07,21.30
2015,07,20,14,08,21.30
2015,07,20,14,09,21.30
2015,07,20,14,10,21.30
2015,07,20,14,11,21.30
2015,07,20,14,12,21.30
2015,07,20,14,13,21.40
2015,07,20,14,14,21.40
2015,07,20,14,15,21.30
2015,07,20,14,16,21.30
2015,07,20,14,17,21.10
2015,07,20,14,18,21.10
2015,07,20,14,19,21.00
2015,07,20,14,20,20.90
2015,07,20,14,21,20.80
2015,07,20,14,22,20.80
2015,07,20,14,23,20.70
2015,07,20,14,24,20.70
2015,07,20,14,25,20.80
2015,07,20,14,26,20.80
2015,07,20,14,27,20.80
2015,07,20,14,28,20.70
2015,07,20,14,29,20.60
2015,07,20,14,30,20.60
2015,07,20,14,31,20.60
2015,07,20,14,32,20.60
2015,07,20,14,33,20.60
2015,07,20,14,34,20.60
2015,07,20,14,35,20.60
2015,07,20,14,36,20.60
2015,07,20,14,37,20.60
2015,07,20,14,38,20.60
2015,07,20,14,39,20.70
2015,07,20,14,40,20.80
2015,07,20,14,41,20.90
2015,07,20,14,42,21.00
2015,07,20,14,43,21.10
2015,07,20,14,44,21.20
2015,07,20,14,45,21.20
2015,07,20,14,46,21.30
2015,07,20,14,47,21.40
2015,07,20,14,48,21.40
2015,07,20,14,49,21.50
2015,07,20,14,50,21.50
2015,07,20,14,51,21.40
2015,07,20,14,52,21.40
2015,07,20,14,53,21.30
2015,07,20,14,54,21.30
2015,07,20,14,55,21.20
2015,07,20,14,56,21.30
2015,07,20,14,57,21.30
2015,07,20,14,58,21.40
2015,07,20,14,59,21.40
2015,07,20,15,00,21.50
2015,07,20,15,01,21.50
2015,07,20,15,02,21.60
2015,07,20,15,03,21.60
2015,07,20,15,04,21.70
2015,07,20,15,05,21.80
2015,07,20,15,06,21.80
2015,07,20,15,07,21.90
2015,07,20,15,08,22.10
2015,07,20,15,09,22.20
2015,07,20,15,10,22.40
2015,07,20,15,11,22.50
2015,07,20,15,12,22.60
2015,07,20,15,13,22.60
2015,07,20,15,14,22.50
2015,07,20,15,15,22.60
2015,07,20,15,16,22.60
2015,07,20,15,17,22.60
2015,07,20,15,18,22.60
2015,07,20,15,19,22.60
2015,07,20,15,20,22.50
2015,07,20,15,21,22.50
2015,07,20,15,22,22.50
2015,07,20,15,23,22.40
2015,07,20,15,24,22.20
2015,07,20,15,25,22.10
2015,07,20,15,26,22.10
2015,07,20,15,27,22.10
2015,07,20,15,28,22.10
2015,07,20,15,29,22.20
2015,07,20,15,30,22.20
2015,07,20,15,31,22.20
2015,07,20,15,32,22.20
2015,07,20,15,33,22.20
2015,07,20,15,34,22.20
2015,07,20,15,35,22.20
2015,07,20,15,36,22.20
2015,07,20,15,37,22.30
2015,07,20,15,38,22.40
2015,07,20,15,39,22.40
2015,07,20,15,40,22.50
2015,07,20,15,41,22.60
2015,07,20,15,42,22.60
2015,07,20,15,43,22.70
2015,07,20,15,44,22.70
2015,07,20,15,45,22.80
2015,07,20,15,46,22.80
2015,07,20,15,47,22.80
2015,07,20,15,48,22.70
2015,07,20,15,49,22.60
2015,07,20,15,50,22.50
2015,07,20,15,51,22.40
2015,07,20,15,52,22.30
2015,07,20,15,53,22.20
2015,07,20,15,54,22.10
2015,07,20,15,55,22.00
2015,07,20,15,56,22.00
2015,07,20,15,57,21.90
2015,07,20,15,58,22.00
2015,07,20,15,59,22.00
2015,07,20,16,00,22.10
2015,07,20,16,01,22.20
2015,07,20,16,02,22.30
2015,07,20,16,03,22.40
2015,07,20,16,04,22.40
2015,07,20,16,05,22.40
2015,07,20,16,06,22.40
2015,07,20,16,07,22.40
2015,07,20,16,08,22.30
2015,07,20,16,09,22.20
2015,07,20,16,10,22.10
2015,07,20,16,11,22.00
2015,07,20,16,12,21.90
2015,07,20,16,13,21.90
2015,07,20,16,14,21.90
2015,07,20,16,15,22.00
2015,07,20,16,16,22.10
2015,07,20,16,17,22.10
2015,07,20,16,18,22.10
2015,07,20,16,19,22.00
2015,07,20,16,20,22.00
2015,07,20,16,21,22.00
2015,07,20,16,22,22.00
2015,07,20,16,23,22.00
2015,07,20,16,24,22.00
2015,07,20,16,25,22.00
2015,07,20,16,26,22.10
2015,07,20,16,27,22.20
2015,07,20,16,28,22.20
2015,07,20,16,29,22.20
2015,07,20,16,30,22.30
2015,07,20,16,31,22.30
2015,07,20,16,32,22.30
2015,07,20,16,33,22.40
2015,07,20,16,34,22.40
2015,07,20,16,35,22.50
2015,07,20,16,36,22.60
2015,07,20,16,37,22.60
2015,07,20,16,38,22.70
2015,07,20,16,39,22.70
2015,07,20,16,40,22.70
2015,07,20,16,41,22.70
2015,07,20,16,42,22.70
2015,07,20,16,43,22.70
2015,07,20,16,44,22.70
2015,07,20,16,45,22.80
2015,07,20,16,46,22.80
2015,07,20,16,47,22.80
2015,07,20,16,48,22.80
2015,07,20,16,49,22.80
2015,07,20,16,50,22.80
2015,07,20,16,51,22.80
2015,07,20,16,52,22.80
2015,07,20,16,53,22.90
2015,07,20,16,54,22.90
2015,07,20,16,55,23.00
2015,07,20,16,56,23.00
2015,07,20,16,57,23.10
2015,07,20,16,58,23.10
2015,07,20,16,59,23.10
2015,07,20,17,00,23.10
2015,07,20,17,01,23.20
2015,07,20,17,02,23.20
2015,07,20,17,03,23.10
2015,07,20,17,04,23.00
2015,07,20,17,05,22.90
2015,07,20,17,06,22.90
2015,07,20,17,07,23.00
2015,07,20,17,08,23.00
2015,07,20,17,09,23.00
2015,07,20,17,10,22.90
2015,07,20,17,11,22.90
2015,07,20,17,12,23.00
2015,07,20,17,13,23.00
2015,07,20,17,14,23.00
2015,07,20,17,15,22.90
2015,07,20,17,16,22.90
2015,07,20,17,17,22.90
2015,07,20,17,18,23.00
2015,07,20,17,19,23.00